Weather History for K8D3 - September, 2012

Change the Weather History Date:

Thursday, September 27, 2012

  Actual Average Record
Temperature  
Mean Temperature 53 °F 55 °F  
Max Temperature 74 °F 67 °F 96 °F (1952)
Min Temperature 31 °F 42 °F 24 °F (1942)
Degree Days  
Heating Degree Days 12 11  
Month to date heating degree days 209 169  
Since 1 July heating degree days 245 212  
Cooling Degree Days 0 0  
Month to date cooling degree days 43 44  
Year to date cooling degree days 705 523  
Growing Degree Days 2 (Base 50)    
Moisture  
Dew Point 29 °F    
Average Humidity 51    
Maximum Humidity 85    
Minimum Humidity 17    
Precipitation  
Precipitation 0.00 in 0.09 in 0.64 in (1945)
Month to date precipitation 0.17 2.28  
Year to date precipitation 14.44 19.02  
Sea Level Pressure  
Sea Level Pressure 30.17 in    
Wind  
Wind Speed 7 mph (SSE)    
Max Wind Speed 14 mph    
Max Gust Speed 18 mph    
T = Trace of Precipitation, MM = Missing Value Source: NWS Daily Summary

Daily Weather History Graph

Daily Weather History Graph

Search for Another Location

Airport or City:

Trip Planner

Search our weather history database for the weather conditions in past years. The results will help you decide how hot, cold, wet, or windy it might be!

Date:

Astronomy

Sep. 27, 2012 Rise Set
Actual Time 7:21 AM CDT 7:14 PM CDT
Civil Twilight 6:52 AM CDT 7:44 PM CDT
Nautical Twilight 6:17 AM CDT 8:18 PM CDT
Astronomical Twilight 5:42 AM CDT 8:54 PM CDT
Moon 5:50 PM CDT (9/27) 4:46 AM CDT (9/27)
Length of Visible Light 12h 52m
Length of Day
11h 52m
Waxing Gibbous, 94% of the Moon is Illuminated
Sep 27
Waxing Gibbous
Sep 29
Full
Oct 8
Last Quarter
Oct 15
New
Oct 21
First Quarter

Hourly Weather History & Observations

Time (CDT) Temp. Windchill Dew Point Humidity Pressure Visibility Wind Dir Wind Speed Gust Speed Precip Events Conditions
12:56 AM 35.1 °F 31.0 °F 28.9 °F 78% 30.20 in - SSW 4.6 mph - N/A   Unknown
1:56 AM 35.1 °F 32.2 °F 28.0 °F 76% 30.20 in - SSW 3.5 mph - N/A   Unknown
2:56 AM 34.0 °F 29.8 °F 28.0 °F 79% 30.19 in - SSW 4.6 mph - N/A   Unknown
3:56 AM 34.0 °F - 28.9 °F 82% 30.20 in - Calm Calm - N/A   Unknown
4:56 AM 30.9 °F 26.2 °F 26.1 °F 82% 30.21 in - SSE 4.6 mph - N/A   Unknown
5:56 AM 32.0 °F 28.7 °F 28.0 °F 85% 30.22 in - South 3.5 mph - N/A   Unknown
6:56 AM 35.1 °F 29.3 °F 28.9 °F 78% 30.24 in - South 6.9 mph - N/A   Unknown
7:56 AM 37.9 °F 32.7 °F 30.0 °F 73% 30.25 in - South 6.9 mph - N/A   Unknown
8:56 AM 48.0 °F - 33.1 °F 56% 30.24 in - South 6.9 mph - N/A   Unknown
9:56 AM 53.1 °F - 34.0 °F 48% 30.22 in - SSE 5.8 mph - N/A   Unknown
10:56 AM 60.1 °F - 34.0 °F 38% 30.21 in - SE 6.9 mph - N/A   Unknown
11:56 AM 66.0 °F - 34.0 °F 30% 30.19 in - SSE 8.1 mph - N/A   Unknown
12:56 PM 70.0 °F - 30.9 °F 24% 30.18 in - SE 9.2 mph - N/A   Unknown
1:56 PM 72.0 °F - 28.9 °F 20% 30.16 in - SE 9.2 mph - N/A   Unknown
2:56 PM 73.0 °F - 30.9 °F 21% 30.15 in - South 10.4 mph - N/A   Unknown
3:56 PM 73.9 °F - 30.0 °F 20% 30.13 in - South 10.4 mph - N/A   Unknown
4:56 PM 73.9 °F - 28.0 °F 18% 30.12 in - SSE 11.5 mph - N/A   Unknown
5:56 PM 72.0 °F - 24.1 °F 17% 30.12 in - SSE 9.2 mph - N/A   Unknown
6:56 PM 66.0 °F - 26.1 °F 22% 30.12 in - SSE 8.1 mph - N/A   Unknown
7:56 PM 59.0 °F - 27.0 °F 29% 30.13 in - SSE 6.9 mph - N/A   Unknown
8:56 PM 55.0 °F - 27.0 °F 34% 30.14 in - South 6.9 mph - N/A   Unknown
9:56 PM 53.1 °F - 27.0 °F 37% 30.13 in - South 5.8 mph - N/A   Unknown
10:56 PM 50.0 °F - 28.0 °F 43% 30.12 in - South 6.9 mph - N/A   Unknown
11:56 PM 48.0 °F - 28.9 °F 48% 30.12 in - SSE 6.9 mph - N/A   Unknown